Location: Sawmill Trailhead
(33.5800°N, 116.4497°W)
Time: 12:23:58
(UTC-07:00)

Amateur Radio Satellites - All Passes

Search period start: 27 August 2015 11:53
Search period end: 28 August 2015 11:53
Location: Sawmill Trailhead, 33.5800°N, 116.4497°W

Satellite Date Start Highest point End Downlink Frequencies (MHz)
Time Altitude Azimuth
ANTELSAT 27 Aug 11:58:04 12:00:01 12° 270° (W) 12:01:40 437.575/2403.000
QB50P2 27 Aug 12:02:47 12:06:18 25° 265° (W) 12:09:46 145.880/145.840
VERMONT LUNAR 27 Aug 12:04:16 12:06:23 17° 215° (SW) 12:08:27 437.305
DX 1 27 Aug 12:04:57 12:09:06 42° 286° (WNW) 12:13:12 434.975-435.025
AISAT 27 Aug 12:06:18 12:10:46 66° 284° (WNW) 12:15:12 437.250
NANOSAT C BR1 27 Aug 12:08:01 12:11:24 22° 265° (W) 12:14:42 145.865
SO-50 27 Aug 12:17:53 12:22:31 42° 246° (WSW) 12:26:58 436.795
QB50P1 27 Aug 12:20:17 12:23:02 16° 267° (W) 12:25:36 145.935-145.965
BUGSAT 1 27 Aug 12:22:18 12:25:38 24° 264° (W) 12:28:56 437.445
CUBEBUG 1 27 Aug 12:22:36 12:27:00 75° 285° (WNW) 12:31:25 437.445
UKube-1 27 Aug 12:25:58 12:29:39 27° 288° (WNW) 12:33:15 .
TISAT 1 27 Aug 12:27:12 12:29:58 17° 93° (E) 12:32:54 437.305
50 SAT 27 Aug 12:32:55 12:35:57 21° 288° (WNW) 12:38:52 437.505
VELOX 1 27 Aug 12:36:28 12:40:25 31° 288° (WNW) 12:44:19 145.980
SPROUT 27 Aug 12:37:54 12:42:03 44° 98° (E) 12:46:13 437.525
PHONESAT 2.4 27 Aug 12:48:32 12:51:57 77° 24° (NNE) 12:55:22 2401.200-2431.200
ESTCUBE 1 27 Aug 13:12:13 13:15:17 18° 290° (WNW) 13:18:10 437.505/2401.250
DANDE 27 Aug 13:15:31 13:22:15 36° 268° (W) 13:29:37 436.750
PCSat 27 Aug 13:23:03 13:28:01 37° 250° (WSW) 13:32:55 145.827
CUSAT 1 27 Aug 13:25:28 13:31:10 22° 271° (W) 13:36:45 437.405
GONETS M04 27 Aug 13:27:42 13:34:24 25° 70° (ENE) 13:41:28
ITUPSAT 1 27 Aug 13:33:39 13:36:16 15° 92° (E) 13:39:07 437.325
Oscar 19 27 Aug 13:35:47 13:40:56 84° 260° (W) 13:46:09 437.125/150
Gurwin Techsat 1B 27 Aug 13:37:52 13:42:21 29° 70° (ENE) 13:46:55 435.225
JAS-2 27 Aug 13:53:18 13:59:09 27° 65° (ENE) 14:05:28 435.910
TISAT 1 27 Aug 14:02:00 14:05:49 31° 287° (WNW) 14:09:32 437.305
BEESAT 27 Aug 14:08:40 14:13:06 39° 98° (E) 14:17:33 436.000
SPROUT 27 Aug 14:15:37 14:17:47 13° 291° (WNW) 14:19:44 437.525
ITAMSAT 1 27 Aug 14:23:47 14:28:55 70° 76° (ENE) 14:34:06 435.822/435.867
PHONESAT 2.4 27 Aug 14:27:16 14:29:36 17° 217° (SW) 14:31:51 2401.200-2431.200
AO-7 27 Aug 14:27:51 14:33:59 24° 61° (ENE) 14:40:24 29.400- 29.500
SWISSCUBE 27 Aug 14:33:37 14:38:23 84° 101° (E) 14:43:09 437.505
JUGNU 27 Aug 15:02:19 15:05:59 17° 171° (S) 15:09:42 437.505
KKS-1 27 Aug 15:02:23 15:05:48 22° 95° (E) 15:09:19 437.445
HORYU 2 27 Aug 15:07:39 15:10:54 21° 70° (ENE) 15:14:17 437.375
ITUPSAT 1 27 Aug 15:09:53 15:14:25 44° 286° (WNW) 15:18:54 437.325
Gurwin Techsat 1B 27 Aug 15:17:43 15:22:17 28° 264° (W) 15:26:47 435.225
GONETS M04 27 Aug 15:23:15 15:31:54 61° 268° (W) 15:40:29
RS-15 27 Aug 15:29:58 15:38:30 29° 106° (ESE) 15:47:39 29.354- 29.394
JAS-2 27 Aug 15:36:26 15:43:39 58° 261° (W) 15:51:22 435.910
Cosmos 2499 27 Aug 15:43:43 15:52:05 50° 77° (ENE) 15:59:58 435.465 / 435.565
BEESAT 27 Aug 15:47:25 15:50:40 18° 291° (WNW) 15:53:44 436.000
BEESAT 3 27 Aug 15:57:48 16:01:51 82° 115° (ESE) 16:05:56 437.485
BEESAT 2 27 Aug 16:02:36 16:06:38 67° 117° (ESE) 16:10:43 435.950
SRMSAT 27 Aug 16:03:46 16:06:30 14° 167° (SSE) 16:09:22 437.500
ITAMSAT 1 27 Aug 16:07:42 16:09:01 11° 271° (W) 16:09:55 435.822/435.867
AIST 2 27 Aug 16:08:14 16:09:55 12° 109° (ESE) 16:11:51 435.215
MOZHAYETS 4 27 Aug 16:16:28 16:19:38 19° 93° (E) 16:22:57
AO-7 27 Aug 16:17:53 16:26:11 68° 256° (WSW) 16:34:30 29.400- 29.500
STARS 27 Aug 16:31:40 16:36:03 57° 285° (WNW) 16:40:23 437.465
KKS-1 27 Aug 16:38:34 16:42:25 28° 289° (WNW) 16:46:11 437.445
HORYU 2 27 Aug 16:43:23 16:47:22 30° 263° (W) 16:51:18 437.375
JUGNU 27 Aug 16:50:06 16:54:21 21° 180° (S) 16:58:36 437.505
ISS 27 Aug 16:56:11 16:58:43 21° 34° (NE) 17:01:18 145.825
Cubesat XI-IV 27 Aug 17:07:49 17:10:50 16° 67° (ENE) 17:14:07 437.490
Cosmos 2499 27 Aug 17:37:37 17:44:52 30° 274° (W) 17:51:30 435.465 / 435.565
RS-15 27 Aug 17:39:20 17:50:09 65° 303° (WNW) 18:01:21 29.354- 29.394
AIST 2 27 Aug 17:44:02 17:48:07 47° 302° (WNW) 17:52:14 435.215
BEESAT 2 27 Aug 17:44:08 17:45:10 11° 314° (NW) 17:46:00 435.950
SRMSAT 27 Aug 17:50:49 17:55:02 20° 176° (S) 17:59:17 437.500
CUTE-I 27 Aug 17:52:04 17:57:04 43° 72° (ENE) 18:02:06 437.470
MOZHAYETS 4 27 Aug 17:52:52 17:56:57 32° 287° (WNW) 18:00:56
CUBESAT XI-V 27 Aug 17:56:53 18:00:08 19° 93° (E) 18:03:32 437.345
ISS 27 Aug 18:32:16 18:35:09 29° 229° (SW) 18:37:59 145.825
JUGNU 27 Aug 18:39:08 18:42:43 16° 190° (S) 18:46:15 437.505
BRITE-PL 27 Aug 18:41:02 18:43:26 15° 68° (ENE) 18:46:06 437.365/2234.400
Cubesat XI-IV 27 Aug 18:45:19 18:50:32 55° 259° (W) 18:55:46 437.490
HO-68 27 Aug 18:49:12 18:52:04 13° 59° (ENE) 18:55:26 435.675
STRAND 1 27 Aug 19:07:34 19:11:54 29° 96° (E) 19:16:19 437.568
GOMX 1 27 Aug 19:32:14 19:36:06 33° 72° (ENE) 19:40:15 467.674
CUBESAT XI-V 27 Aug 19:33:30 19:37:39 33° 287° (WNW) 19:41:46 437.345
CUTE-I 27 Aug 19:33:36 19:37:23 19° 267° (W) 19:40:57 437.470
Cosmos 2491 27 Aug 19:36:47 19:43:20 24° 69° (ENE) 19:50:15 435.465 / 435.565
CUTE 1.7 + AOD 2 27 Aug 19:38:19 19:40:45 15° 70° (ENE) 19:43:22 437.475
SRMSAT 27 Aug 19:39:24 19:43:35 20° 186° (S) 19:47:45 437.500
CANX-2 27 Aug 19:50:30 19:53:56 24° 72° (ENE) 19:57:26 2200.000
CINEMA 3 27 Aug 19:52:34 19:54:55 14° 67° (ENE) 19:57:32 145.822/145.860
O/OREOS (USA 219) 27 Aug 19:55:20 19:59:51 83° 289° (WNW) 20:04:25 437.305
RS-15 27 Aug 19:58:12 20:05:35 18° 331° (NNW) 20:12:41 29.354- 29.394
DOVE 4 27 Aug 20:08:06 20:12:21 51° 74° (ENE) 20:16:55 437.250
AIST 1 27 Aug 20:13:30 20:17:48 71° 265° (W) 20:22:07
CUBEBUG 2 27 Aug 20:15:38 20:16:34 11° 66° (ENE) 20:17:48 437.445
BRITE-PL 27 Aug 20:17:49 20:21:41 35° 263° (W) 20:25:44 437.365/2234.400
SEEDS 27 Aug 20:19:51 20:23:45 37° 74° (ENE) 20:27:43 437.485
PRISM 27 Aug 20:24:23 20:28:20 48° 285° (WNW) 20:32:17 437.425
UWE-3 27 Aug 20:31:27 20:33:17 13° 67° (ENE) 20:35:24 435.000/436.395/437.385
HO-68 27 Aug 20:31:46 20:38:55 84° 74° (ENE) 20:46:08 435.675
ZACube-1 27 Aug 20:36:42 20:36:59 10° 67° (ENE) 20:37:34 437.345
FUNcube-1 27 Aug 20:42:54 20:44:30 12° 68° (ENE) 20:46:22 145.935
STRAND 1 27 Aug 20:46:44 20:51:02 27° 290° (WNW) 20:55:14 437.568
COMPASS 1 27 Aug 20:49:15 20:53:26 67° 77° (ENE) 20:57:38 437.405
AAUSAT CUBESAT 2 27 Aug 21:03:34 21:07:47 84° 78° (ENE) 21:12:00 437.432
GOMX 1 27 Aug 21:11:36 21:14:27 17° 269° (W) 21:17:14 467.674
CUTE 1.7 + AOD 2 27 Aug 21:12:24 21:16:23 36° 262° (W) 21:20:21 437.475
CANX-2 27 Aug 21:26:19 21:29:47 23° 265° (W) 21:33:08 2200.000
CINEMA 3 27 Aug 21:27:19 21:31:40 47° 262° (W) 21:36:15 145.822/145.860
SRMSAT 27 Aug 21:29:41 21:32:07 12° 195° (SSW) 21:34:25 437.500
Cosmos 2491 27 Aug 21:32:17 21:40:53 62° 268° (W) 21:49:27 435.465 / 435.565
Oscar 11 27 Aug 21:35:35 21:39:56 84° 77° (ENE) 21:44:18 145.826/435.025
YUBILEINY 27 Aug 21:35:38 21:44:20 74° 94° (E) 21:53:07 435.215
UKube-1 27 Aug 21:43:18 21:44:30 11° 67° (ENE) 21:45:59 .
CUBEBUG 2 27 Aug 21:48:13 21:52:42 64° 260° (W) 21:57:21 437.445
DOVE 4 27 Aug 21:49:02 21:50:36 11° 272° (W) 21:51:54 437.250
HUMSAT D 27 Aug 21:56:02 21:59:49 31° 73° (ENE) 22:03:40 437.325/437.525
VELOX 1 27 Aug 21:56:42 21:57:38 11° 67° (ENE) 21:58:51 145.980
SEEDS 27 Aug 21:57:19 21:59:43 14° 268° (W) 22:01:55 437.485
DELFI C3 27 Aug 22:00:22 22:04:25 75° 259° (WSW) 22:08:29 145.870
UWE-3 27 Aug 22:04:57 22:09:22 53° 261° (W) 22:13:53 435.000/436.395/437.385
ZACube-1 27 Aug 22:08:22 22:12:48 65° 260° (W) 22:17:21 437.345
ANTELSAT 27 Aug 22:15:58 22:18:32 15° 91° (E) 22:21:18 437.575/2403.000
FUNcube-1 27 Aug 22:15:59 22:20:21 54° 261° (W) 22:24:50 145.935
RS-15 27 Aug 22:22:17 22:24:56 11° 8° (N) 22:27:51 29.354- 29.394
HO-68 27 Aug 22:23:56 22:27:33 14° 271° (W) 22:30:39 435.675
Cosmos 2504 27 Aug 22:25:16 22:29:30 16° 81° (E) 22:34:25 435.465 / 435.565
ESTCUBE 1 27 Aug 22:30:58 22:34:14 21° 71° (ENE) 22:37:38 437.505/2401.250
AUBIESAT-1 27 Aug 22:43:48 22:46:38 20° 97° (E) 22:49:26 437.475
M-CUBED/EXP-1 PRIME 27 Aug 22:44:19 22:47:36 25° 99° (E) 22:50:43 437.505
DX 1 27 Aug 22:56:05 23:00:24 83° 257° (WSW) 23:04:45 434.975-435.025
AISAT 27 Aug 22:59:48 23:04:08 65° 76° (ENE) 23:08:32 437.250
UNISAT 6 27 Aug 23:05:24 23:09:57 60° 100° (E) 23:14:23 437.425
50 SAT 27 Aug 23:11:09 23:15:06 73° 259° (WSW) 23:19:04 437.505
CUBEBUG 1 27 Aug 23:14:38 23:18:49 52° 75° (ENE) 23:23:02 437.445
UKube-1 27 Aug 23:16:02 23:20:14 52° 260° (W) 23:24:27 .
SPROUT 27 Aug 23:28:48 23:31:57 21° 71° (ENE) 23:35:14 437.525
VELOX 1 27 Aug 23:29:26 23:33:44 57° 260° (W) 23:38:04 145.980
POLYITAN 1 27 Aug 23:31:04 23:35:06 38° 98° (E) 23:39:07 437.675
HUMSAT D 27 Aug 23:32:39 23:35:37 18° 267° (W) 23:38:27 437.325/437.525
POPSAT HIP 1 27 Aug 23:35:26 23:39:32 42° 99° (E) 23:43:38 437.405
TIGRISAT 27 Aug 23:35:52 23:40:26 62° 284° (WNW) 23:44:51 435.000
YUBILEINY 27 Aug 23:35:57 23:42:10 20° 293° (WNW) 23:47:57 435.215
DUCHIFAT 1 27 Aug 23:39:59 23:44:07 46° 99° (E) 23:48:14 145.980
QB50P2 27 Aug 23:51:04 23:55:22 72° 101° (E) 23:59:38 145.880/145.840
ANTELSAT 27 Aug 23:51:15 23:55:33 39° 287° (WNW) 23:59:42 437.575/2403.000
NANOSAT C BR1 27 Aug 23:55:42 23:59:59 77° 102° (ESE) 00:04:15 145.865
ESTCUBE 1 28 Aug 00:07:00 00:10:57 29° 264° (W) 00:14:50 437.505/2401.250
BUGSAT 1 28 Aug 00:07:20 00:11:32 62° 100° (E) 00:15:45 437.445
QB50P1 28 Aug 00:07:26 00:11:44 74° 284° (WNW) 00:16:00 145.935-145.965
Cosmos 2504 28 Aug 00:12:52 00:20:44 80° 277° (W) 00:29:12 435.465 / 435.565
AUBIESAT-1 28 Aug 00:18:10 00:21:20 22° 295° (WNW) 00:24:15 437.475
M-CUBED/EXP-1 PRIME 28 Aug 00:19:18 00:22:15 19° 296° (WNW) 00:24:54 437.505
BEESAT 3 28 Aug 00:21:11 00:23:26 15° 49° (NE) 00:25:49 437.485
BEESAT 2 28 Aug 00:26:54 00:28:45 13° 48° (NE) 00:30:44 435.950
RS-15 28 Aug 00:33:35 00:43:16 29° 41° (NE) 00:53:35 29.354- 29.394
ITUPSAT 1 28 Aug 00:37:58 00:39:37 12° 67° (ENE) 00:41:35 437.325
DANDE 28 Aug 00:42:06 00:44:46 34° 92° (E) 00:48:04 436.750
UNISAT 6 28 Aug 00:44:47 00:46:14 11° 293° (WNW) 00:47:22 437.425
CUSAT 1 28 Aug 00:45:45 00:48:58 89° 303° (WNW) 00:53:10 437.405
TISAT 1 28 Aug 00:49:22 00:53:32 72° 258° (WSW) 00:57:45 437.305
SO-50 28 Aug 00:49:47 00:52:18 15° 109° (ESE) 00:55:06 436.795
CUBEBUG 1 28 Aug 00:55:10 00:55:33 10° 270° (W) 00:55:37 437.445
SPROUT 28 Aug 01:04:16 01:07:54 26° 264° (W) 01:11:29 437.525
POLYITAN 1 28 Aug 01:08:10 01:10:41 15° 291° (WNW) 01:13:01 437.675
BEESAT 28 Aug 01:11:28 01:15:31 29° 71° (ENE) 01:19:39 436.000
POPSAT HIP 1 28 Aug 01:12:50 01:15:04 14° 291° (WNW) 01:17:04 437.405
DUCHIFAT 1 28 Aug 01:17:39 01:19:32 12° 292° (WNW) 01:21:12 145.980
SWISSCUBE 28 Aug 01:36:02 01:40:44 60° 75° (ENE) 01:45:26 437.505
Oscar 19 28 Aug 01:51:34 01:56:35 48° 99° (E) 02:01:36 437.125/150
BEESAT 3 28 Aug 01:57:48 02:01:35 40° 246° (WSW) 02:05:17 437.485
KKS-1 28 Aug 01:58:15 02:00:06 13° 68° (ENE) 02:02:12 437.445
Gurwin Techsat 1B 28 Aug 01:59:03 02:02:02 16° 91° (E) 02:05:19 435.225
BEESAT 2 28 Aug 02:03:12 02:07:06 49° 245° (WSW) 02:10:56 435.950
AIST 2 28 Aug 02:09:34 02:13:18 31° 55° (NE) 02:17:00 435.215
Cosmos 2504 28 Aug 02:11:09 02:14:38 12° 298° (WNW) 02:17:30 435.465 / 435.565
ITUPSAT 1 28 Aug 02:12:20 02:17:04 60° 259° (W) 02:21:48 437.325
PCSat 28 Aug 02:17:02 02:22:14 51° 112° (ESE) 02:27:29 145.827
GONETS M04 28 Aug 02:23:45 02:30:59 32° 87° (E) 02:38:28
SO-50 28 Aug 02:27:49 02:32:27 50° 303° (WNW) 02:37:13 436.795
ITAMSAT 1 28 Aug 02:41:02 02:45:41 34° 97° (E) 02:50:24 435.822/435.867
RS-15 28 Aug 02:45:18 02:57:17 82° 243° (WSW) 03:09:34 29.354- 29.394
BEESAT 28 Aug 02:49:30 02:53:21 23° 265° (W) 02:57:06 436.000
JAS-2 28 Aug 02:52:30 02:58:14 28° 91° (E) 03:03:35 435.910
MOZHAYETS 4 28 Aug 03:16:05 03:17:49 12° 68° (ENE) 03:19:48
SWISSCUBE 28 Aug 03:17:38 03:19:02 11° 270° (W) 03:20:05 437.505
STARS 28 Aug 03:24:09 03:28:31 75° 76° (ENE) 03:32:57 437.465
KKS-1 28 Aug 03:32:03 03:36:21 49° 260° (W) 03:40:41 437.445
Oscar 19 28 Aug 03:32:10 03:35:35 17° 293° (WNW) 03:38:47 437.125/150
Gurwin Techsat 1B 28 Aug 03:37:14 03:42:23 51° 286° (WNW) 03:47:29 435.225
AIST 2 28 Aug 03:48:46 03:51:38 18° 249° (WSW) 03:54:21 435.215
PCSat 28 Aug 04:02:02 04:06:00 20° 308° (NW) 04:09:49 145.827
Cosmos 2499 28 Aug 04:14:16 04:21:50 44° 89° (E) 04:29:59 435.465 / 435.565
GONETS M04 28 Aug 04:19:20 04:27:35 46° 283° (WNW) 04:35:49
ITAMSAT 1 28 Aug 04:20:55 04:25:02 24° 291° (WNW) 04:29:01 435.822/435.867
AO-7 28 Aug 04:24:06 04:32:10 55° 102° (ESE) 04:40:15 29.400- 29.500
VERMONT LUNAR 28 Aug 04:30:57 04:33:46 39° 149° (SSE) 04:36:34 437.305
JAS-2 28 Aug 04:36:53 04:43:32 42° 290° (WNW) 04:49:23 435.910
HORYU 2 28 Aug 04:37:56 04:42:24 70° 102° (ESE) 04:46:48 437.375
MOZHAYETS 4 28 Aug 04:50:05 04:54:38 55° 260° (W) 04:59:10
CUBESAT XI-V 28 Aug 04:58:02 04:59:48 12° 68° (ENE) 05:01:50 437.345
RS-15 28 Aug 05:01:23 05:08:34 17° 258° (WSW) 05:14:41 29.354- 29.394
PHONESAT 2.4 28 Aug 05:33:27 05:34:01 10° 141° (SE) 05:34:44 2401.200-2431.200
VERMONT LUNAR 28 Aug 06:07:28 06:10:15 34° 344° (NNW) 06:13:01 437.305
Cosmos 2499 28 Aug 06:07:43 06:15:10 34° 287° (WNW) 06:22:50 435.465 / 435.565
O/OREOS (USA 219) 28 Aug 06:09:20 06:13:57 86° 250° (WSW) 06:18:32 437.305
CUTE-I 28 Aug 06:13:43 06:17:55 24° 95° (E) 06:22:14 437.470
AO-7 28 Aug 06:17:40 06:24:36 30° 297° (WNW) 06:31:18 29.400- 29.500
STRAND 1 28 Aug 06:19:44 06:23:58 28° 70° (ENE) 06:28:19 437.568
CUBESAT XI-V 28 Aug 06:32:20 06:36:50 53° 260° (W) 06:41:21 437.345
Cubesat XI-IV 28 Aug 07:06:31 07:11:52 84° 103° (ESE) 07:17:13 437.490
PHONESAT 2.4 28 Aug 07:08:09 07:11:33 71° 152° (SSE) 07:14:56 2401.200-2431.200
PRISM 28 Aug 07:09:59 07:14:03 67° 76° (ENE) 07:18:08 437.425
GOMX 1 28 Aug 07:38:09 07:41:43 18° 91° (E) 07:45:31 467.674
VERMONT LUNAR 28 Aug 07:44:51 07:47:11 20° 0° (N) 07:49:32 437.305
YUBILEINY 28 Aug 07:51:41 07:59:01 30° 72° (ENE) 08:06:34 435.215
CUTE-I 28 Aug 07:53:16 07:58:03 34° 289° (WNW) 08:02:47 437.470
STRAND 1 28 Aug 07:58:45 08:03:08 28° 264° (W) 08:07:25 437.568
HO-68 28 Aug 08:05:36 08:10:18 19° 92° (E) 08:15:21 435.675
DOVE 4 28 Aug 08:11:22 08:15:28 23° 93° (E) 08:19:42 437.250
BRITE-PL 28 Aug 08:24:50 08:30:20 89° 301° (WNW) 08:36:02 437.365/2234.400
Cosmos 2491 28 Aug 08:32:56 08:40:09 32° 87° (E) 08:47:36 435.465 / 435.565
COMPASS 1 28 Aug 08:38:09 08:40:18 14° 92° (E) 08:42:38 437.405
AIST 1 28 Aug 08:38:31 08:42:46 83° 96° (E) 08:47:02
PHONESAT 2.4 28 Aug 08:46:32 08:49:37 31° 348° (NNW) 08:52:42 2401.200-2431.200
Cubesat XI-IV 28 Aug 08:50:27 08:51:21 10° 296° (WNW) 08:51:54 437.490
AAUSAT CUBESAT 2 28 Aug 08:51:32 08:54:14 17° 93° (E) 08:57:03 437.432
CUTE 1.7 + AOD 2 28 Aug 09:01:18 09:05:23 48° 99° (E) 09:09:28 437.475
CANX-2 28 Aug 09:14:33 09:18:47 83° 101° (E) 09:23:00 2200.000
GOMX 1 28 Aug 09:14:50 09:20:04 49° 286° (WNW) 09:25:20 467.674
VERMONT LUNAR 28 Aug 09:21:21 09:24:08 35° 17° (NNE) 09:26:55 437.305
CINEMA 3 28 Aug 09:25:57 09:30:55 58° 100° (E) 09:35:44 145.822/145.860
AUBIESAT-1 28 Aug 09:26:43 09:29:58 19° 65° (ENE) 09:33:22 437.475
M-CUBED/EXP-1 PRIME 28 Aug 09:27:33 09:31:14 23° 66° (ENE) 09:35:03 437.505
Oscar 11 28 Aug 09:27:48 09:30:58 20° 94° (E) 09:34:13 145.826/435.025
ISS 28 Aug 09:31:43 09:34:51 51° 134° (SE) 09:38:01 145.825
SEEDS 28 Aug 09:43:23 09:47:32 62° 284° (WNW) 09:51:37 437.485
CUBEBUG 2 28 Aug 09:43:39 09:48:00 37° 97° (E) 09:52:15 437.445
DELFI C3 28 Aug 09:44:11 09:46:56 19° 94° (E) 09:49:49 145.870
YUBILEINY 28 Aug 09:47:45 09:56:13 51° 269° (W) 10:04:33 435.215
DOVE 4 28 Aug 09:48:25 09:53:17 37° 287° (WNW) 09:58:04 437.250
HO-68 28 Aug 09:51:28 09:58:37 65° 288° (WNW) 10:05:41 435.675
UWE-3 28 Aug 09:59:03 10:03:25 42° 98° (E) 10:07:41 435.000/436.395/437.385
UNISAT 6 28 Aug 10:00:15 10:04:22 33° 72° (ENE) 10:08:36 437.425
ZACube-1 28 Aug 10:01:26 10:05:29 33° 96° (E) 10:09:28 437.345
Cosmos 2504 28 Aug 10:05:20 10:12:11 28° 71° (ENE) 10:18:59 435.465 / 435.565
BRITE-PL 28 Aug 10:07:14 10:08:16 10° 294° (WNW) 10:08:54 437.365/2234.400
FUNcube-1 28 Aug 10:08:36 10:12:47 38° 97° (E) 10:16:54 145.935
COMPASS 1 28 Aug 10:12:19 10:16:07 35° 286° (WNW) 10:19:52 437.405
POLYITAN 1 28 Aug 10:21:00 10:23:50 18° 70° (ENE) 10:26:51 437.675
POPSAT HIP 1 28 Aug 10:25:04 10:28:03 20° 70° (ENE) 10:31:11 437.405
PHONESAT 2.4 28 Aug 10:25:10 10:28:03 25° 5° (N) 10:30:57 2401.200-2431.200
AAUSAT CUBESAT 2 28 Aug 10:26:17 10:29:53 28° 287° (WNW) 10:33:23 437.432
Cosmos 2491 28 Aug 10:28:25 10:36:45 47° 283° (WNW) 10:45:01 435.465 / 435.565
DUCHIFAT 1 28 Aug 10:29:02 10:32:08 21° 71° (ENE) 10:35:22 145.980
TIGRISAT 28 Aug 10:29:56 10:34:31 70° 76° (ENE) 10:39:13 435.000
CUTE 1.7 + AOD 2 28 Aug 10:39:26 10:40:54 11° 292° (WNW) 10:42:08 437.475
QB50P2 28 Aug 10:40:11 10:43:54 31° 73° (ENE) 10:47:41 145.880/145.840
NANOSAT C BR1 28 Aug 10:44:21 10:48:06 32° 73° (ENE) 10:51:55 145.865
ANTELSAT 28 Aug 10:45:18 10:49:55 75° 259° (WSW) 10:54:38 437.575/2403.000
DX 1 28 Aug 10:49:01 10:52:26 23° 95° (E) 10:55:58 434.975-435.025
50 SAT 28 Aug 10:51:25 10:53:46 16° 93° (E) 10:56:15 437.505
BUGSAT 1 28 Aug 10:54:02 10:57:16 24° 71° (ENE) 11:00:35 437.445
AISAT 28 Aug 10:55:28 10:58:21 17° 93° (E) 11:01:25 437.250
QB50P1 28 Aug 10:55:59 11:00:01 46° 75° (ENE) 11:04:08 145.935-145.965
VERMONT LUNAR 28 Aug 10:57:47 11:00:36 37° 211° (SSW) 11:03:25 437.305
AUBIESAT-1 28 Aug 10:59:55 11:04:22 40° 258° (WSW) 11:08:49 437.475
M-CUBED/EXP-1 PRIME 28 Aug 11:01:29 11:05:47 33° 259° (W) 11:10:07 437.505
SO-50 28 Aug 11:03:09 11:07:55 49° 57° (ENE) 11:12:35 436.795
Oscar 11 28 Aug 11:03:28 11:07:08 27° 288° (WNW) 11:10:43 145.826/435.025
CINEMA 3 28 Aug 11:05:01 11:07:36 14° 293° (WNW) 11:09:54 145.822/145.860
UKube-1 28 Aug 11:07:32 11:11:27 33° 98° (E) 11:15:24 .
CUBEBUG 1 28 Aug 11:08:59 11:11:07 14° 92° (E) 11:13:29 437.445
ISS 28 Aug 11:09:30 11:11:29 15° 329° (NNW) 11:13:25 145.825
PCSat 28 Aug 11:09:50 11:13:33 19° 51° (NE) 11:17:24 145.827
DELFI C3 28 Aug 11:18:42 11:22:00 25° 287° (WNW) 11:25:12 145.870
HUMSAT D 28 Aug 11:19:03 11:23:18 78° 283° (WNW) 11:27:29 437.325/437.525
CUBEBUG 2 28 Aug 11:21:10 11:24:23 18° 291° (WNW) 11:27:23 437.445
DANDE 28 Aug 11:22:03 11:29:01 42° 77° (ENE) 11:36:59 436.750
CUSAT 1 28 Aug 11:22:58 11:30:34 61° 79° (E) 11:38:44 437.405
VELOX 1 28 Aug 11:23:54 11:28:00 36° 98° (E) 11:32:07 145.980
UWE-3 28 Aug 11:36:49 11:39:34 15° 292° (WNW) 11:42:07 435.000/436.395/437.385
UNISAT 6 28 Aug 11:37:47 11:41:13 20° 267° (W) 11:44:33 437.425
ZACube-1 28 Aug 11:38:24 11:41:36 19° 290° (WNW) 11:44:36 437.345
FUNcube-1 28 Aug 11:45:59 11:48:47 16° 291° (WNW) 11:51:23 145.935
